Date,TemperatureHighF,TemperatureAvgF,TemperatureLowF,DewpointHighF,DewpointAvgF,DewpointLowF,HumidityHigh,HumidityAvg,HumidityLow,PressureMaxIn,PressureMinIn,WindSpeedMaxMPH,WindSpeedAvgMPH,GustSpeedMaxMPH,PrecipitationSumIn
2013-12-1,80.8,73.7,67.5,48.7,44.5,34.1,44,35,29,30.05,29.96,26,6,26,0.00
2013-12-2,83.5,73.5,67.5,53.3,46.8,43.5,58,39,28,30.00,29.92,10,1,10,0.00
2013-12-3,82.2,74.2,68.7,66.2,55.0,47.4,87,53,35,29.92,29.80,8,0,8,0.00
2013-12-4,74.1,67.5,60.1,65.8,60.7,56.1,91,79,59,29.88,29.82,17,2,17,0.10
2013-12-5,63.5,58.6,54.3,58.3,55.6,52.3,96,90,79,29.94,29.81,15,1,18,0.83
2013-12-6,67.3,59.3,55.6,56.8,54.8,53.0,93,86,66,30.04,29.92,12,1,12,0.05
2013-12-7,67.3,59.7,56.1,58.9,54.3,52.0,90,83,60,30.06,30.00,11,0,11,0.26
2013-12-8,61.9,57.1,54.1,58.3,54.6,51.2,95,91,79,30.11,30.00,16,1,16,1.37
2013-12-9,62.4,55.2,49.3,53.2,47.4,41.3,90,75,59,30.20,30.10,14,1,14,0.00
2013-12-10,61.2,52.0,44.4,49.6,44.0,39.0,92,75,44,30.18,29.89,11,1,11,0.12
2013-12-11,56.7,50.8,44.4,51.2,47.5,42.8,95,89,66,29.90,29.59,25,3,26,2.39
2013-12-12,49.3,43.1,38.8,44.9,40.5,36.7,97,91,67,29.85,29.71,24,2,24,1.09
2013-12-13,42.3,39.9,36.3,41.5,38.8,35.0,97,96,92,30.00,29.78,27,7,27,3.78
2013-12-14,46.8,41.3,37.8,45.5,40.3,36.2,97,96,92,30.34,29.98,18,2,18,0.94
2013-12-15,59.9,46.9,37.6,44.2,38.2,34.9,94,74,45,30.42,30.34,8,0,8,0.00
2013-12-16,61.0,49.6,41.7,38.4,35.2,30.3,80,60,33,30.36,30.21,10,1,10,0.00
2013-12-17,61.9,52.0,44.8,34.7,31.2,28.8,61,46,31,30.21,30.09,15,1,15,0.00
2013-12-18,64.8,51.8,40.5,41.9,35.7,29.7,73,56,32,30.13,30.04,8,0,8,0.00
2013-12-19,64.9,53.0,43.7,50.1,41.1,35.6,78,65,37,30.23,30.11,6,0,6,0.00
2013-12-20,69.3,56.1,46.4,39.6,37.3,34.0,74,52,28,30.28,30.22,9,1,11,0.00
2013-12-21,68.9,55.2,44.4,44.5,38.3,31.1,79,56,25,30.32,30.25,10,1,11,0.00
2013-12-22,67.3,55.0,45.9,47.0,40.8,33.3,81,62,30,30.31,30.22,11,1,11,0.00
2013-12-23,72.3,56.5,44.8,41.3,31.3,21.3,71,42,16,30.28,30.21,8,0,8,0.00
2013-12-24,68.2,55.6,43.0,30.4,25.1,16.6,60,32,19,30.32,30.21,9,1,14,0.00
2013-12-25,68.9,60.2,52.5,28.2,22.8,16.2,30,24,20,30.22,30.05,23,5,23,0.00
2013-12-26,72.7,61.0,53.2,37.3,30.5,22.4,49,32,21,30.08,29.98,14,2,14,0.00
2013-12-27,75.7,61.6,49.3,49.0,40.4,33.6,57,46,33,30.10,29.97,15,1,18,0.00
2013-12-28,75.2,64.5,58.6,55.3,47.0,42.3,76,54,35,29.97,29.88,19,3,19,0.00
2013-12-29,63.9,56.5,50.5,52.9,46.7,41.5,78,70,56,29.97,29.90,10,0,10,0.00
2013-12-30,64.9,54.6,47.7,51.1,43.9,37.5,96,69,43,29.96,29.89,14,1,14,0.28
2013-12-31,62.1,52.6,46.2,52.8,48.4,45.1,96,87,67,30.09,29.95,12,0,12,0.01